{"data":{"norad_id":62837,"intl_designator":"2025-019J","name":"STARLINK-11557 [DTC]","alt_names":[],"object_type":"PAYLOAD","status":"ACTIVE","operator":null,"country":"US","launch_date":"2025-01-27","launch_site_code":"AFETR","launch_vehicle":null,"mission":null,"orbit_class":"UNKNOWN","rcs_meters":null,"size_class":null,"mass_kg":null,"dimensions":null,"purposes":["comms"],"wikipedia_slug":null,"has_3d_model":false,"image_url":null,"decayed_at":null,"tle_current":{"epoch":"2026-05-24T20:53:47.010336Z","epoch_age_seconds":96423,"freshness":"FRESH","line1":"1 62837U 25019J   26144.87068299  .00190237  00000+0  14466-2 0  9993","line2":"2 62837  42.9993 206.6455 0001488 291.3948  68.6761 15.70934447 75863","mean_motion":15.70934447,"eccentricity":0.0001488,"inclination_deg":42.9993,"raan_deg":206.6455,"arg_perigee_deg":291.3948,"mean_anomaly_deg":68.6761,"bstar":0.0014466,"rev_number":7586,"period_min":91.665187096123,"perigee_km":355.22305480667,"apogee_km":357.22720097593,"semimajor_km":6734.3621278913,"source":"CELESTRAK","updated_at":"2026-05-25T13:38:19.779658Z"}}}